Tracking 25195 objects as of 21-Jan-2022
HD Live streaming from Space Station
objects crossing your sky now

STARLINK-1840

Track STARLINK-1840 now!
10-day predictions
STARLINK-1840 is classified as:


NORAD ID: 47131
Int'l Code: 2020-088K
Perigee: 300.0 km
Apogee: 309.3 km
Inclination: 53.0 °
Period: 90.5 minutes
Semi major axis: 6675 km
RCS: Unknown
Launch date: November 25, 2020
Source: United States (US)
Launch site: AIR FORCE EASTERN TEST RANGE (AFETR)
aabbcc
Your satellite tracking list
Your tracking list is empty




NASA's NSSDC Master Catalog

Two Line Element Set (TLE):
1 47131U 20088K   22020.66121470  .00147443  19188-4  44991-3 0  9991
2 47131  53.0493 158.6256 0006972 280.5956  79.4284 15.91690151 65793
Source of the keplerian elements: AFSPC